Ifafi, South Africa

7:53 PM SAST on May 28, 2017 (GMT +0200)
Ifafi

Weather History for WFALA - March, 2014

Change the Weather History Date:

Thursday, March 20, 2014

  Actual Average Record
Temperature  
Mean Temperature 70 °F -  
Max Temperature 84 °F - - ()
Min Temperature 57 °F - - ()
Cooling Degree Days 6    
Growing Degree Days 20 (Base 50)    
Moisture  
Dew Point 50 °F    
Average Humidity 59    
Maximum Humidity 100    
Minimum Humidity 17    
Precipitation  
Precipitation 0.00 in - - ()
Sea Level Pressure  
Sea Level Pressure 30.14 in    
Wind  
Wind Speed 3 mph ()    
Max Wind Speed 9 mph    
Max Gust Speed -    
Visibility 2.9 miles    
Events Fog    
T = Trace of Precipitation, MM = Missing Value Source: Averaged Metar Reports

Daily Weather History Graph

Daily Weather History Graph

Search for Another Location

Airport or City:

Trip Planner

Search our weather history database for the weather conditions in past years. The results will help you decide how hot, cold, wet, or windy it might be!

Date:

Astronomy

Mar. 20, 2014 Rise Set
Actual Time 6:11 AM SAST 6:19 PM SAST
Civil Twilight 5:48 AM SAST 6:42 PM SAST
Nautical Twilight 5:22 AM SAST 7:09 PM SAST
Astronomical Twilight 4:55 AM SAST 7:36 PM SAST
Moon 8:50 PM SAST (3/20) 9:25 AM SAST (3/20)
Length of Visible Light 12h 53m
Length of Day
12h 07m
Waning Gibbous, 86% of the Moon is Illuminated
Mar 20
Waning Gibbous
Mar 24
Last Quarter
Mar 30
New
Apr 7
First Quarter
Apr 15
Full

Hourly Weather History & Observations

Time (SAST) Temp. Dew Point Humidity Pressure Visibility Wind Dir Wind Speed Gust Speed Precip Events Conditions
12:00 AM 64.4 °F 62.6 °F 94% 30.09 in - Variable 2.3 mph - N/A   Unknown
1:00 AM 62.6 °F 62.6 °F 100% 30.12 in - South 3.5 mph - N/A   Unknown
2:00 AM 62.6 °F 60.8 °F 94% 30.09 in - ESE 3.5 mph - N/A   Unknown
3:00 AM 60.8 °F 59.0 °F 94% 30.09 in - SW 4.6 mph - N/A   Unknown
4:00 AM 59.0 °F 59.0 °F 100% 30.09 in - Calm Calm - N/A   Unknown
5:00 AM 59.0 °F 57.2 °F 94% 30.12 in 0.1 mi East 4.6 mph - N/A Fog Fog
6:00 AM 57.2 °F 57.2 °F 100% 30.12 in 0.1 mi East 3.5 mph - N/A Fog Fog
7:00 AM 57.2 °F 57.2 °F 100% 30.15 in 0.1 mi South 4.6 mph - N/A Fog Fog
8:00 AM 59.0 °F 59.0 °F 100% 30.15 in 5.6 mi Calm Calm - N/A   Scattered Clouds
8:31 AM 64.4 °F 64.4 °F 100% 30.18 in 5.6 mi Calm Calm - N/A   Scattered Clouds
9:33 AM 71.6 °F 60.8 °F 69% 30.18 in 6.2 mi Variable 2.3 mph - N/A   Scattered Clouds
10:00 AM 73.4 °F 57.2 °F 57% 30.18 in - Variable 3.5 mph - N/A   Clear
11:00 AM 77.0 °F 48.2 °F 36% 30.15 in - NNW 4.6 mph - N/A   Clear
11:42 AM 80.6 °F 39.2 °F 23% 30.15 in - NW 5.8 mph - N/A   Clear
12:00 PM 80.6 °F 32.0 °F 17% 30.15 in - Variable 3.5 mph - N/A   Clear
1:00 PM 82.4 °F 35.6 °F 19% 30.15 in - NNW 5.8 mph - N/A   Clear
2:00 PM 82.4 °F 42.8 °F 25% 30.12 in - NNW 8.1 mph - N/A   Clear
3:00 PM 82.4 °F 41.0 °F 23% 30.12 in - NNW 9.2 mph - N/A   Clear
4:00 PM 84.2 °F 39.2 °F 20% 30.12 in - West 5.8 mph - N/A   Clear
5:00 PM 82.4 °F 41.0 °F 23% 30.12 in - NW 6.9 mph - N/A   Clear
6:00 PM 78.8 °F 42.8 °F 28% 30.12 in - NW 5.8 mph - N/A   Clear
7:00 PM 73.4 °F 42.8 °F 33% 30.15 in - Calm Calm - N/A   Clear
8:00 PM 69.8 °F 48.2 °F 46% 30.18 in - SSE 6.9 mph - N/A   Clear
9:00 PM 68.0 °F 44.6 °F 43% 30.18 in - SSE 3.5 mph - N/A   Clear
10:00 PM 64.4 °F 48.2 °F 56% 30.21 in - Calm Calm - N/A   Clear
11:00 PM 66.2 °F 44.6 °F 46% 30.21 in - Calm Calm - N/A   Unknown